Вернуться в каталог

THOR ABLESTAR DEB

АктивенLEO
NORAD 5716·DEBRIS·🇺🇸 United States

Запущен Jun 29, 1961 с Cape Canaveral Space Force Station

Loading…

Ближайшие Пролёты (ближайшие 24 часа)

TLE

СвежийSource: Space-Track

Эпоха: Sep 13, 2026, 09:10 UTC

1  5716U 61015JT  26256.38212991  .00001511  00000-0  28097-3 0  9995
2  5716  66.6960   7.4960 0071890 306.0875  53.3598 14.66546874373337

Отслеживайте THOR ABLESTAR DEB в реальном времени с AllMySat

Download on the App Store